EW4638 Weather Reports


time (UTC)temp
C
wind
direction
speed
KPH
gust
KPH
rain 1hr
cm
rain 24hr
cm
rain mn
cm
humidity
%
barometer
mb
20260906040038 23 310 0.0 0.0 0.00 0.00 0.00 79 1010.3
20260906034542 23 310 0.0 0.0 0.00 0.00 0.00 79 1010.4
20260906033035 23 310 0.0 0.0 0.00 0.00 0.00 78 1010.5
20260906031531 24 310 0.0 0.0 0.00 0.00 0.00 77 1010.5
20260906030032 24 310 0.0 0.0 0.00 0.00 0.00 77 1010.3
20260906024532 24 310 0.0 0.0 0.00 0.00 0.00 77 1010.5
20260906023131 24 310 0.0 0.0 0.00 0.00 0.00 76 1010.3
20260906021530 25 310 0.0 0.0 0.00 0.00 0.00 75 1009.9
20260906020029 25 310 0.0 0.0 0.00 0.00 0.00 73 1009.8
20260906014559 25 310 0.0 0.0 0.00 0.00 0.00 73 1009.6
20260906013028 25 310 0.0 0.0 0.00 0.00 0.00 72 1009.6
20260906011536 25 310 0.0 0.0 0.00 0.00 0.00 72 1009.6
20260906010027 26 310 0.0 0.0 0.00 0.00 0.00 72 1009.4
20260906004536 26 310 0.0 0.0 0.00 0.00 0.00 71 1009.4
20260906003042 26 310 0.0 0.0 0.00 0.00 0.00 69 1009.3
20260906001526 27 310 0.0 1.6 0.00 0.00 0.00 70 1009.5
20260906000024 27 310 0.0 0.0 0.00 0.00 0.00 68 1009.7
20260905234524 28 310 0.0 0.0 0.00 0.00 0.00 68 1009.9
20260905233123 28 310 0.0 1.6 0.00 0.00 0.00 67 1009.8
20260905231523 29 310 0.0 0.0 0.00 0.00 0.00 66 1009.7
20260905230022 30 5 0.0 0.0 0.00 0.00 0.00 65 1009.6
20260905224528 31 5 0.0 0.0 0.00 0.00 0.00 62 1009.9
20260905223022 32 5 0.0 1.6 0.00 0.00 0.00 58 1009.8
20260905221521 33 5 0.0 0.0 0.00 0.00 0.00 53 1009.6
20260905220023 34 5 0.0 0.0 0.00 0.00 0.00 51 1009.8
20260905214521 34 5 0.0 0.0 0.00 0.00 0.00 48 1009.3
20260905213035 34 355 0.0 6.4 0.00 0.00 0.00 50 1009.4
20260905211518 34 348 0.0 1.6 0.00 0.00 0.00 49 1009.4
20260905210018 34 62 0.0 0.0 0.00 0.00 0.00 50 1009.4
20260905204519 35 62 0.0 3.2 0.00 0.00 0.00 52 1009.4
20260905203017 35 62 0.0 4.8 0.00 0.00 0.00 48 1009.7
20260905201511 35 63 0.0 0.0 0.00 0.00 0.00 50 1009.8
20260905200008 35 27 0.0 1.6 0.00 0.00 0.00 49 1010.1
20260905193001 34 314 0.0 0.0 0.00 0.00 0.00 49 1010.5
20260905191600 33 37 0.0 0.0 0.00 0.00 0.00 50 1010.5
20260905190059 33 321 0.0 8.0 0.00 0.00 0.00 52 1010.9
20260905184551 33 186 0.0 1.6 0.00 0.00 0.00 54 1011.3
20260905183055 32 229 0.0 0.0 0.00 0.00 0.00 54 1011.4
20260905181548 32 187 0.0 0.0 0.00 0.00 0.00 56 1011.7
20260905180046 32 183 0.0 9.7 0.00 0.00 0.00 55 1011.8
20260905174544 32 205 0.0 0.0 0.00 0.00 0.00 58 1012.1
20260905173042 31 232 0.0 0.0 0.00 0.00 0.00 60 1012.1
20260905171539 31 234 0.0 0.0 0.00 0.00 0.00 59 1012.4
20260905170046 31 225 0.0 0.0 0.00 0.00 0.00 60 1012.5
20260905164534 31 193 0.0 0.0 0.00 0.00 0.00 62 1012.5
20260905163031 30 281 0.0 0.0 0.00 0.00 0.00 64 1013.0
20260905161527 30 251 0.0 0.0 0.00 0.00 0.00 63 1012.9
20260905160123 29 248 0.0 3.2 0.00 0.00 0.00 65 1012.7
20260905154515 28 178 0.0 4.8 0.00 0.00 0.00 69 1012.8
20260905153010 28 11 0.0 6.4 0.00 0.00 0.00 70 1012.9
20260905151507 27 201 0.0 0.0 0.00 0.00 0.00 74 1013.2
20260905150005 26 9 0.0 1.6 0.00 0.00 0.00 77 1013.3
20260905144602 25 15 0.0 8.0 0.00 0.00 0.00 78 1013.6
20260905143058 25 91 1.6 6.4 0.00 0.00 0.00 82 1013.4
20260905141555 24 262 0.0 8.0 0.00 0.00 0.00 85 1013.5
20260905140049 23 273 0.0 0.0 0.00 0.00 0.00 85 1013.2
20260905134552 23 173 0.0 0.0 0.00 0.00 0.00 85 1012.9
20260905133046 23 173 0.0 3.2 0.00 0.00 0.00 85 1012.8
20260905131550 23 246 0.0 0.0 0.00 0.00 0.00 86 1012.8
20260905130037 22 246 0.0 3.2 0.00 0.00 0.00 85 1013.0
20260905124547 22 246 0.0 0.0 0.00 0.00 0.00 86 1012.9
20260905123020 22 246 0.0 0.0 0.00 0.00 0.00 86 1012.6
20260905121519 22 246 0.0 0.0 0.00 0.00 0.00 86 1012.5
20260905120016 22 350 0.0 0.0 0.00 0.00 0.00 86 1012.5
20260905114524 22 350 0.0 0.0 0.00 0.00 0.00 85 1012.2
20260905113023 22 350 0.0 0.0 0.00 0.00 0.00 85 1012.1
20260905111512 22 350 0.0 0.0 0.00 0.00 0.00 85 1012.1
20260905110015 22 350 0.0 0.0 0.00 0.00 0.00 85 1012.0
20260905104519 22 350 0.0 0.0 0.00 0.00 0.00 85 1011.9
20260905103021 22 350 0.0 0.0 0.00 0.00 0.00 85 1011.9
20260905101509 22 350 0.0 0.0 0.00 0.00 0.00 85 1011.8
20260905100019 22 350 0.0 0.0 0.00 0.00 0.00 85 1011.7
20260905094511 22 350 0.0 0.0 0.00 0.00 0.00 85 1011.5
20260905093006 22 350 0.0 0.0 0.00 0.00 0.00 85 1011.4
20260905091505 23 350 0.0 0.0 0.00 0.00 0.00 84 1011.5
20260905090007 23 350 0.0 0.0 0.00 0.00 0.00 84 1011.3
20260905084504 23 350 0.0 0.0 0.00 0.00 0.00 84 1011.2
20260905083001 23 350 0.0 0.0 0.00 0.00 0.00 84 1011.1
20260905081606 23 350 0.0 0.0 0.00 0.00 0.00 84 1011.2
20260905074558 23 350 0.0 0.0 0.00 0.00 0.00 83 1011.4
20260905073055 23 350 0.0 0.0 0.00 0.00 0.00 83 1011.7
20260905071556 23 350 0.0 0.0 0.00 0.00 0.00 83 1012.0
20260905070052 24 350 0.0 0.0 0.00 0.00 0.00 83 1012.0
20260905064550 24 350 0.0 0.0 0.00 0.00 0.00 83 1012.1
20260905063058 24 350 0.0 0.0 0.00 0.00 0.00 82 1012.4
20260905061602 24 350 0.0 0.0 0.00 0.00 0.00 82 1012.4
20260905060143 25 350 0.0 0.0 0.00 0.00 0.00 81 1012.5
20260905054541 25 350 0.0 0.0 0.00 0.00 0.00 81 1012.5
20260905053040 25 350 0.0 0.0 0.00 0.00 0.00 80 1012.6
20260905051537 25 350 0.0 0.0 0.00 0.00 0.00 80 1012.7
20260905050036 25 350 0.0 0.0 0.00 0.00 0.00 79 1012.7
20260905044537 26 350 0.0 0.0 0.00 0.00 0.00 78 1012.7
20260905043029 26 350 0.0 0.0 0.00 0.00 0.00 78 1012.6
20260905041525 26 350 0.0 0.0 0.00 0.00 0.00 78 1012.7